Starlink 11455

operational
NORAD ID: 62463 Int'l Des: 2024-254 Owner: SPXS Country: US Constellation: starlink
LEOCIRCULAR

关于 Starlink 11455

正在加载描述...

实时位置

正在加载3D地球...

即将过境

高度历史

Altitude vs Time

uPlot chart will show altitude changes over time

两行轨道根数

1 62463U 24254B 25346.18407435 .00349715 00000-0 25982-2 0 9997
2 62463 42.9988 30.9063 0001908 239.5558 120.5121 15.71001880 55631
Epoch: Dec 12, 2025 • Age: 21 hours

当前状态

高度 362.5 km
速度 7.69 km/s
星下点 -31.80°S, 121.23°W
发射日期 Dec 31, 2024
运行时间 0.9 years
类型 internet

技术详情

分类 Payload
质量 960.00 kg
干质量 910.00 kg
总质量 960.00 kg
长度 0.30 m
直径 4.10 m
跨度 29.00 m
形状 Box + pan
制造商 SPXS
平台类型 Starlink V2MD
阶段状态 In Orbit
所有者/国家 SPXS/US

大型星座

Loading constellations...